Regional Weather Roundup
Issued by NWS

Home | Current Version | Previous Version | Graphics & Text | Print | Product List | Glossary Off
Versions: 1 2 3 4 5 6 7 8 9 10 11 12 13 14 15 16 17 18 19 20 21 22 23 24 25 26 27 28 29 30 31 32 33 34 35 36 37 38 39 40 41 42 43 44 45 46 47 48 49 50

000
ASUS43 KMKX 301721
RWRWI

WISCONSIN REGIONAL WEATHER ROUNDUP
NATIONAL WEATHER SERVICE MILWAUKEE/SULLIVAN WI
1200 PM CDT SAT APR 30 2016

NOTE: "FAIR" INDICATES FEW OR NO CLOUDS BELOW 12,000 FEET WITH NO
SIGNIFICANT WEATHER AND/OR OBSTRUCTIONS TO VISIBILITY.

WIZ001-002-006>008-014>016-023>028-301800-
NORTHWEST WISCONSIN

CITY           SKY/WX    TMP DP  RH WIND       PRES   REMARKS
SUPERIOR ARPT  SUNNY     44  35  70 NE18G29   30.25F
ASHLAND        CLOUDY    50  39  66 N20       30.25F
HAYWARD        MOSUNNY   53  32  44 NE16G25   30.17F
SIREN          CLOUDY    56  30  36 NE17G24   30.14S
CUMBERLAND     LGT RAIN  52  32  46 NE17G24   30.12F
RICE LAKE      PTSUNNY   55  30  38 E15G24    30.13F
CHETEK         PTSUNNY   54  35  47 NE14G21   30.11F
LADYSMITH      CLOUDY    55  32  43 NE14      30.15F
EAU CLAIRE     CLOUDY    54  33  45 E20G25    30.08F
MENOMONIE      CLOUDY    55  34  45 NE15      30.09F
NEW RICHMOND   CLOUDY    54  32  43 NE20      30.09F
OSCEOLA        CLOUDY    55  32  41 E17G24    30.13S
$$

WIZ003>005-009-010-017-018-301800-
NORTH CENTRAL WISCONSIN

CITY           SKY/WX    TMP DP  RH WIND       PRES   REMARKS
MANITOWISH WTR CLOUDY    51  32  48 NE13G18   30.18S
ARBOR VITAE    PTSUNNY   53  31  44 NE9       30.15F
WOODRUFF       PTSUNNY   53  31  44 NE9       30.15F
RHINELANDER    PTSUNNY   53  31  42 E15G21    30.16S
EAGLE RIVER    PTSUNNY   53  28  37 NE12      30.15F
LAND O LAKES   CLOUDY    52  30  42 E9        30.18F
PHILLIPS       CLOUDY    52  32  46 NE10G16   30.14F
TOMAHAWK       CLOUDY    53  31  44 E9G16     30.15F
MEDFORD        CLOUDY    53  34  49 E15       30.11S
MERRILL        CLOUDY    54  33  45 E10G16    30.13F
$$

WIZ029-030-035-036-043>047-301800-
CENTRAL WISCONSIN

CITY           SKY/WX    TMP DP  RH WIND       PRES   REMARKS
WAUSAU         CLOUDY    56  31  38 E13       30.10F
MOSINEE        SUNNY     52  32  46 E14G21    30.12F
MARSHFIELD     CLOUDY    52  33  48 E15       30.09F
STEVENS POINT  CLOUDY    51  34  53 E15       30.11F
WAUPACA        CLOUDY    55  38  51 E12       30.12F
WAUTOMA        NOT AVBL
WISC RAPIDS    CLOUDY    52  33  48 E14       30.12S
CAMP DOUGLAS   CLOUDY    50  43  76 E15       30.06F
$$

WIZ011>013-019>022-031-037>040-048>050-301800-
NORTHEAST WISCONSIN

CITY           SKY/WX    TMP DP  RH WIND       PRES   REMARKS
ANTIGO         CLOUDY    53  32  45 E14       30.13F
SHAWANO        CLOUDY    55  37  49 E9        30.15S
OCONTO         PTSUNNY   51  33  52 NE8G17    30.16F
STURGEON BAY   PTSUNNY   48  34  57 E9        30.18F
GREEN BAY      CLOUDY    51  41  68 NE13      30.15S
MANITOWOC      CLOUDY    52  35  52 MISG      30.15S
APPLETON       PTSUNNY   52  36  54 E12G22    30.11F
CLINTONVILLE   CLOUDY    54  34  47 E10G16    30.13S
OSHKOSH        PTSUNNY   52  38  58 E15       30.11S
$$

WIZ032>034-041-042-053>061-301800-
SOUTHWEST WISCONSIN

CITY           SKY/WX    TMP DP  RH WIND       PRES   REMARKS
LA CROSSE      CLOUDY    50  34  54 E12       30.04F
SPARTA         CLOUDY    49  37  61 E14G20    30.06F
VIROQUA        CLOUDY    45  39  80 E14       30.02F
BOSCOBEL       LGT RAIN  48  42  80 NE6       30.01F
PRAIRIE DU CHI LGT RAIN  47  40  78 E9        29.97F
PLATTEVILLE    CLOUDY    47  44  91 NE18G25   29.96S
$$

WIZ056-057-062-063-064-067-068-301800-
SOUTH CENTRAL WISCONSIN

CITY           SKY/WX    TMP DP  RH WIND       PRES   REMARKS
REEDSBURG      CLOUDY    49  40  70 E8G17     30.04F
BARABOO/DELLS  CLOUDY    49  38  65 E16G23    30.04F
LONE ROCK      LGT RAIN  49  42  77 NE14      30.02F
MINERAL POINT  LGT RAIN  46  43  87 E14G21    29.98S
MADISON        LGT RAIN  48  42  80 E15       30.02F
MIDDLETON      CLOUDY    49  43  81 E16       30.02F
WATERTOWN      CLOUDY    49  40  69 E16       30.05F
MONROE         LGT RAIN  45  43  93 NE18G25   29.96F
JANESVILLE     LGT RAIN  48  45  87 E20G25    29.99F
$$

WIZ051-052-058>065-066-070>072-301800-
SOUTHEAST WISCONSIN

CITY           SKY/WX    TMP DP  RH WIND       PRES   REMARKS
MILWAUKEE      CLOUDY    45  38  76 E15       30.07F
WAUKESHA       CLOUDY    45  36  70 E12       30.08F
MILWAUKEE/TIMM PTSUNNY   46  36  66 E7        30.10S
RACINE         LGT RAIN  45  38  76 E15       30.07F
BURLINGTON     DRIZZLE   46  39  76 E13G18    30.03F
KENOSHA        LGT RAIN  46  41  82 E15       30.05F
FOND DU LAC    PTSUNNY   53  38  56 E14       30.10F
SHEBOYGAN      CLOUDY    47  38  71 NE10      30.12F
WEST BEND      PTSUNNY   50  36  57 E10G18    30.09F
JUNEAU         CLOUDY    49  38  65 E17G25    30.08F
$$

LSZ147-162-301800-
LAKE SUPERIOR

STATION/POSITION TIME  TEMP    WIND        PRES    WAVE
                       AIR SEA DIR/SP/G            HT/PER
                 (UTC) (F)     (DEG/KT/KT) (MB)    (FT/S)
W MID LAKE BUOY  1650   38 37   40/ 10/ 10 1026.9R   1/ 4
DEVILS ISLAND    1700   39      60/ 18/ 19 1026.3F
PORT WING        1533   41      30/ 21/ 25 1024.7
SAXON HARBOR     1640   40      50/ 21/ 24 1023.7F
$$

LMZ867-665-643>646-301800-
LAKE MICHIGAN

STATION/POSITION TIME  TEMP    WIND        PRES    WAVE
                       AIR SEA DIR/SP/G            HT/PER
                 (UTC) (F)     (DEG/KT/KT) (MB)    (FT/S)
CHAMBERS ISLAND  1600   42      20/  9/ 12 1022.4S
N MID LAKE BUOY  1650   39 39   20/ 10/ 12 1022.5F   1/ 3
NORTHPORT PIER   1600   44      60/ 10/ 12 1022.4S
ALGOMA LAKESHORE 1600           60/ 15/ 18   N/A
KEWAUNEE LAKESHO 1600   43      30/ 11/ 14 1020.8F
SHEBOYGAN LAKESH 1700   41      20/ 10/ 11 1020.9F
PORT WASHINGTON  1640   45      60/  9/ 11 1020.7S
S MID LAKE BUOY  1650   43 40   70/ 12/ 14 1018.5F   1/ 3
KENOSHA   LAKESH 1700   43      80/ 16/ 18 1017.6F
$$

TC  - TEMPERATURE IN CELSIUS
VSB - VISIBILITY IN STATUTE MILES
WCI - WIND CHILL INDEX
HX  - HEAT INDEX





USA.gov is the U.S. government's official web portal to all federal, state and local government web resources and services.